This is the latest recevied weather packets stored in our database for station/object N1YZ. If no packets are shown the sender has not sent any weather packets the latest 10 day(s).
| Time | Temp. | Humidity | Pressure | Rain* | Wind** | Luminosity | Snow |
|---|---|---|---|---|---|---|---|
| 1777968965 | 13.89° C | 84% | 1033.3 hPa | 0 mm | - | 0 W/m² | - |
| 1777968662 | 13.89° C | 83% | 1033.2 hPa | 0 mm | - | 0 W/m² | - |
| 1777968358 | 13.89° C | 83% | 1033.3 hPa | 0 mm | - | 0 W/m² | - |
| 1777968055 | 13.89° C | 83% | 1033.2 hPa | 0 mm | - | 0 W/m² | - |
| 1777967751 | 13.89° C | 82% | 1033.3 hPa | 0 mm | - | 0 W/m² | - |
| 1777967448 | 13.89° C | 82% | 1033.2 hPa | 0 mm | - | 0 W/m² | - |
| 1777967144 | 14.44° C | 82% | 1033.3 hPa | 0 mm | - | 0 W/m² | - |
| 1777966842 | 14.44° C | 80% | 1033.4 hPa | 0 mm | - | 0 W/m² | - |
| 1777966539 | 14.44° C | 80% | 1033.6 hPa | 0 mm | - | 0 W/m² | - |
| 1777966238 | 14.44° C | 80% | 1033.4 hPa | 0 mm | - | 0 W/m² | - |
| 1777965933 | 14.44° C | 79% | 1033.5 hPa | 0 mm | - | 0 W/m² | - |
| 1777965630 | 14.44° C | 79% | 1033.4 hPa | 0 mm | - | 0 W/m² | - |
| 1777965325 | 14.44° C | 79% | 1033.4 hPa | 0 mm | - | 0 W/m² | - |
| 1777965024 | 14.44° C | 80% | 1033.5 hPa | 0 mm | - | 0 W/m² | - |
| 1777964720 | 14.44° C | 78% | 1033.4 hPa | 0 mm | - | 0 W/m² | - |
| 1777964416 | 14.44° C | 80% | 1033.5 hPa | 0 mm | - | 0 W/m² | - |
| 1777964112 | 14.44° C | 81% | 1033.4 hPa | 0 mm | - | 0 W/m² | - |
| 1777963809 | 14.44° C | 81% | 1033.4 hPa | 0 mm | - | 0 W/m² | - |
| 1777963506 | 15° C | 78% | 1033.4 hPa | 0 mm | - | 0 W/m² | - |
| 1777963204 | 15° C | 78% | 1033.4 hPa | 0 mm | - | 0 W/m² | - |
| 1777962901 | 15° C | 79% | 1033.8 hPa | 0 mm | - | 0 W/m² | - |
| 1777962597 | 15.56° C | 77% | 1033.4 hPa | 0 mm | - | 0 W/m² | - |
| 1777962294 | 15.56° C | 76% | 1033.3 hPa | 0 mm | - | 0 W/m² | - |
| 1777961991 | 15.56° C | 74% | 1033.5 hPa | 0 mm | - | 0 W/m² | - |
| 1777961689 | 15.56° C | 73% | 1033.5 hPa | 0 mm | - | 0 W/m² | - |
* Rain latest hour (hover to see other rain measurements)
** Current wind speed in m/s (hover to see current wind gust speed)